Krasnodar, Russia

9:10 AM MSK on April 30, 2017 (GMT +0300)
Pashkovsky

Weather History for URKK - April, 2013

Change the Weather History Date:

Monday, April 8, 2013

  Actual Average Record
Temperature  
Mean Temperature 61 °F -  
Max Temperature 71 °F - - ()
Min Temperature 51 °F - - ()
Degree Days  
Heating Degree Days 4    
Growing Degree Days 11 (Base 50)    
Moisture  
Dew Point 49 °F    
Average Humidity 74    
Maximum Humidity 88    
Minimum Humidity 41    
Precipitation  
Precipitation 0.00 in 0.08 in - ()
Sea Level Pressure  
Sea Level Pressure 29.54 in    
Wind  
Wind Speed 11 mph ()    
Max Wind Speed 20 mph    
Max Gust Speed 29 mph    
Visibility 5.9 miles    
Events      
T = Trace of Precipitation, MM = Missing Value Source: Averaged Metar Reports

Daily Weather History Graph

Daily Weather History Graph

Search for Another Location

Airport or City:

Trip Planner

Search our weather history database for the weather conditions in past years. The results will help you decide how hot, cold, wet, or windy it might be!

Date:

Astronomy

Apr. 08, 2013 Rise Set
Actual Time 6:51 AM MSK 7:59 PM MSK
Civil Twilight 6:21 AM MSK 8:30 PM MSK
Nautical Twilight 5:45 AM MSK 9:06 PM MSK
Astronomical Twilight 5:07 AM MSK 9:44 PM MSK
Moon 5:34 AM MSK (4/8) 6:08 PM MSK (4/8)
Length of Visible Light 14h 08m
Length of Day
13h 08m
Waning Crescent, 5% of the Moon is Illuminated
Apr 8
Waning Crescent
Apr 10
New
Apr 18
First Quarter
Apr 25
Full
May 2
Last Quarter

Hourly Weather History & Observations

Time (MSK) Temp. Dew Point Humidity Pressure Visibility Wind Dir Wind Speed Gust Speed Precip Events Conditions
12:00 AM 55.4 °F 48.2 °F 77% 29.71 in - NE 8.9 mph - N/A   Clear
12:30 AM 55.4 °F 48.2 °F 77% 29.71 in - NNE 8.9 mph - N/A   Clear
1:00 AM 55.4 °F 50.0 °F 82% 29.71 in - NNE 6.7 mph - N/A   Clear
1:30 AM 55.4 °F 50.0 °F 82% 29.65 in 6.2 mi NNE 13.4 mph 20.1 mph N/A   Mostly Cloudy
2:00 AM 55.4 °F 48.2 °F 77% 29.68 in 6.2 mi NNE 11.2 mph - N/A   Mostly Cloudy
2:30 AM 55.4 °F 50.0 °F 82% 29.62 in 6.2 mi NE 15.7 mph 22.4 mph N/A   Mostly Cloudy
3:00 AM 55.4 °F 48.2 °F 77% 29.62 in - NNE 11.2 mph 17.9 mph N/A   Clear
3:30 AM 53.6 °F 48.2 °F 82% 29.59 in - NNE 17.9 mph 24.6 mph N/A   Clear
4:00 AM 53.6 °F 48.2 °F 82% 29.59 in - NNE 17.9 mph 24.6 mph N/A   Clear
4:30 AM 51.8 °F 48.2 °F 88% 29.56 in - North 17.9 mph 24.6 mph N/A   Clear
5:00 AM 51.8 °F 48.2 °F 88% 29.59 in - North 13.4 mph 20.1 mph N/A   Clear
5:30 AM 51.8 °F 48.2 °F 88% 29.53 in - NE 13.4 mph 20.1 mph N/A   Clear
6:00 AM 51.8 °F 48.2 °F 88% 29.53 in - NNE 13.4 mph 20.1 mph N/A   Clear
6:30 AM 51.8 °F 46.4 °F 82% 29.50 in - NE 15.7 mph 22.4 mph N/A   Clear
7:00 AM 51.8 °F 46.4 °F 82% 29.50 in - NE 15.7 mph 22.4 mph N/A   Clear
7:30 AM 51.8 °F 46.4 °F 82% 29.50 in - NE 13.4 mph 20.1 mph N/A   Clear
8:00 AM 51.8 °F 46.4 °F 82% 29.50 in - NE 13.4 mph 20.1 mph N/A   Clear
8:30 AM 53.6 °F 48.2 °F 82% 29.47 in 5.0 mi East 6.7 mph - N/A   Mostly Cloudy
9:00 AM 55.4 °F 48.2 °F 77% 29.47 in - East 11.2 mph 17.9 mph N/A   Clear
9:30 AM 55.4 °F 50.0 °F 82% 29.44 in - East 11.2 mph 17.9 mph N/A   Clear
10:00 AM 55.4 °F 50.0 °F 82% 29.44 in - East 8.9 mph - N/A   Clear
10:30 AM 57.2 °F 50.0 °F 77% 29.47 in - SSE 6.7 mph - N/A   Clear
11:00 AM 57.2 °F 50.0 °F 77% 29.47 in - South 6.7 mph - N/A   Clear
11:30 AM 57.2 °F 50.0 °F 77% 29.47 in - South 6.7 mph - N/A   Clear
12:00 PM 59.0 °F 51.8 °F 77% 29.47 in - South 6.7 mph - N/A   Clear
12:30 PM 60.8 °F 51.8 °F 72% 29.47 in - South 8.9 mph - N/A   Clear
1:00 PM 68.0 °F 48.2 °F 49% 29.47 in - SSW 15.7 mph 22.4 mph N/A   Clear
1:30 PM 69.8 °F 46.4 °F 43% 29.47 in 5.0 mi SW 20.1 mph 29.1 mph N/A   Mostly Cloudy
2:00 PM 71.6 °F 46.4 °F 41% 29.47 in 5.6 mi SW 20.1 mph 26.8 mph N/A   Mostly Cloudy
2:30 PM 66.2 °F 51.8 °F 60% 29.50 in 5.6 mi WNW 17.9 mph 24.6 mph N/A   Mostly Cloudy
3:00 PM 66.2 °F 51.8 °F 60% 29.50 in - NW 13.4 mph 20.1 mph N/A   Clear
3:30 PM 64.4 °F 51.8 °F 64% 29.53 in - NW 11.2 mph - N/A   Clear
4:00 PM 64.4 °F 51.8 °F 64% 29.53 in - West 11.2 mph 17.9 mph N/A   Clear
4:30 PM 62.6 °F 51.8 °F 68% 29.53 in - WNW 11.2 mph 17.9 mph N/A   Clear
5:00 PM 60.8 °F 50.0 °F 68% 29.53 in - NW 11.2 mph - N/A   Clear
5:30 PM 60.8 °F 50.0 °F 68% 29.53 in - WNW 11.2 mph - N/A   Clear
6:00 PM 60.8 °F 48.2 °F 63% 29.53 in - NW 13.4 mph - N/A   Clear
6:30 PM 59.0 °F 48.2 °F 67% 29.53 in - NW 13.4 mph - N/A   Clear
7:00 PM 57.2 °F 48.2 °F 72% 29.53 in - NW 11.2 mph - N/A   Clear
7:30 PM 57.2 °F 48.2 °F 72% 29.53 in - WNW 13.4 mph - N/A   Clear
8:00 PM 57.2 °F 48.2 °F 72% 29.53 in - WNW 11.2 mph - N/A   Clear
8:30 PM 55.4 °F 46.4 °F 72% 29.56 in 6.2 mi WNW 6.7 mph 13.4 mph N/A   Overcast
9:00 PM 55.4 °F 46.4 °F 72% 29.59 in 6.2 mi Variable 2.2 mph - N/A   Overcast
9:30 PM 55.4 °F 46.4 °F 72% 29.59 in 6.2 mi WNW 8.9 mph - N/A   Overcast
10:00 PM 53.6 °F 48.2 °F 82% 29.59 in 6.2 mi West 4.5 mph - N/A   Overcast
10:30 PM 53.6 °F 46.4 °F 77% 29.62 in - West 8.9 mph - N/A   Clear
11:00 PM 53.6 °F 46.4 °F 77% 29.62 in - WSW 4.5 mph - N/A   Clear
11:30 PM 53.6 °F 48.2 °F 82% 29.62 in - SW 4.5 mph - N/A   Clear